| time (UTC) | temp C | wind direction | speed KPH | gust KPH | rain 1hr cm | rain 24hr cm | rain mn cm | humidity % | barometer mb |
| 20260504110503 | 12 | 245 | 1.6 | 3.2 | 0.00 | 0.00 | 0.00 | 53 | 998.1 |
| 20260504100424 | 11 | 204 | 0.0 | 0.0 | 0.00 | 0.00 | 0.00 | 54 | 998.7 |
| 20260504081818 | 12 | 263 | 0.0 | 0.0 | 0.00 | 0.00 | 0.00 | 52 | 1000.4 |
| 20260504081314 | 12 | 272 | 0.0 | 1.6 | 0.00 | 0.00 | 0.00 | 50 | 1000.5 |
| 20260504080810 | 12 | 269 | 0.0 | 1.6 | 0.00 | 0.00 | 0.00 | 51 | 1000.6 |
| 20260504080308 | 12 | 200 | 0.0 | 1.6 | 0.00 | 0.00 | 0.00 | 50 | 1000.7 |
| 20260504070235 | 11 | 273 | 1.6 | 3.2 | 0.00 | 0.00 | 0.00 | 50 | 1001.9 |
| 20260504060155 | 10 | 284 | 0.0 | 0.0 | 0.00 | 0.00 | 0.00 | 51 | 1002.6 |
| 20260504050623 | 11 | 284 | 0.0 | 0.0 | 0.00 | 0.00 | 0.00 | 50 | 1003.3 |
| 20260504050121 | 10 | 284 | 1.6 | 1.6 | 0.00 | 0.00 | 0.00 | 51 | 1003.4 |
| 20260504045618 | 11 | 283 | 0.0 | 0.0 | 0.00 | 0.00 | 0.00 | 53 | 1003.6 |
| 20260504045112 | 10 | 284 | 1.6 | 1.6 | 0.00 | 0.00 | 0.00 | 52 | 1003.6 |
| 20260504044610 | 10 | 285 | 0.0 | 1.6 | 0.00 | 0.00 | 0.00 | 53 | 1003.6 |
| 20260504044107 | 10 | 281 | 0.0 | 0.0 | 0.00 | 0.00 | 0.00 | 56 | 1004.0 |
| 20260504043604 | 10 | 282 | 0.0 | 0.0 | 0.00 | 0.00 | 0.00 | 54 | 1003.7 |
| 20260504043101 | 10 | 282 | 0.0 | 0.0 | 0.00 | 0.00 | 0.00 | 57 | 1003.8 |
| 20260504042558 | 10 | 281 | 0.0 | 0.0 | 0.00 | 0.00 | 0.00 | 55 | 1004.0 |
| 20260504042055 | 10 | 281 | 0.0 | 0.0 | 0.00 | 0.00 | 0.00 | 57 | 1003.9 |
| 20260504041551 | 10 | 281 | 0.0 | 0.0 | 0.00 | 0.00 | 0.00 | 57 | 1004.1 |
| 20260504041047 | 10 | 281 | 0.0 | 0.0 | 0.00 | 0.00 | 0.00 | 59 | 1004.1 |
| 20260504040545 | 10 | 281 | 0.0 | 0.0 | 0.00 | 0.00 | 0.00 | 57 | 1004.4 |
| 20260504040041 | 10 | 281 | 0.0 | 0.0 | 0.00 | 0.00 | 0.00 | 60 | 1004.3 |
| 20260504035538 | 10 | 281 | 0.0 | 0.0 | 0.00 | 0.00 | 0.00 | 56 | 1004.4 |
| 20260504035034 | 10 | 281 | 0.0 | 0.0 | 0.00 | 0.00 | 0.00 | 61 | 1004.5 |
| 20260504034533 | 10 | 281 | 0.0 | 0.0 | 0.00 | 0.00 | 0.00 | 61 | 1004.4 |
| 20260504034029 | 10 | 281 | 0.0 | 0.0 | 0.00 | 0.00 | 0.00 | 54 | 1004.6 |
| 20260504033528 | 10 | 281 | 0.0 | 0.0 | 0.00 | 0.00 | 0.00 | 56 | 1004.9 |
| 20260504033024 | 10 | 281 | 0.0 | 0.0 | 0.00 | 0.00 | 0.00 | 59 | 1004.7 |
| 20260504032521 | 10 | 281 | 0.0 | 0.0 | 0.00 | 0.00 | 0.00 | 59 | 1005.0 |
| 20260504032018 | 10 | 281 | 0.0 | 0.0 | 0.00 | 0.00 | 0.00 | 56 | 1004.9 |
| 20260504031515 | 10 | 281 | 0.0 | 0.0 | 0.00 | 0.00 | 0.00 | 55 | 1005.0 |
| 20260504031011 | 10 | 281 | 0.0 | 0.0 | 0.00 | 0.00 | 0.00 | 53 | 1005.2 |
| 20260504030509 | 11 | 281 | 0.0 | 0.0 | 0.00 | 0.00 | 0.00 | 51 | 1005.2 |
| 20260504030004 | 11 | 281 | 0.0 | 0.0 | 0.00 | 0.00 | 0.00 | 51 | 1005.1 |
| 20260504025501 | 11 | 281 | 0.0 | 0.0 | 0.00 | 0.00 | 0.00 | 49 | 1005.2 |
| 20260504024958 | 12 | 281 | 0.0 | 0.0 | 0.00 | 0.00 | 0.00 | 46 | 1005.3 |
| 20260504024455 | 12 | 281 | 0.0 | 0.0 | 0.00 | 0.00 | 0.00 | 51 | 1005.3 |
| 20260504023952 | 11 | 281 | 0.0 | 0.0 | 0.00 | 0.00 | 0.00 | 52 | 1005.3 |
| 20260504023449 | 11 | 281 | 0.0 | 0.0 | 0.00 | 0.00 | 0.00 | 49 | 1005.1 |
| 20260504022944 | 12 | 281 | 0.0 | 0.0 | 0.00 | 0.00 | 0.00 | 51 | 1005.1 |
| 20260504022441 | 12 | 281 | 0.0 | 0.0 | 0.00 | 0.00 | 0.00 | 53 | 1005.3 |
| 20260504021937 | 13 | 281 | 0.0 | 0.0 | 0.00 | 0.00 | 0.00 | 51 | 1005.3 |
| 20260504021435 | 13 | 281 | 0.0 | 0.0 | 0.00 | 0.00 | 0.00 | 53 | 1005.2 |
| 20260504020932 | 13 | 281 | 0.0 | 0.0 | 0.00 | 0.00 | 0.00 | 50 | 1005.5 |
| 20260504020428 | 14 | 281 | 0.0 | 0.0 | 0.00 | 0.00 | 0.00 | 52 | 1005.3 |
| 20260504015925 | 15 | 281 | 0.0 | 0.0 | 0.00 | 0.00 | 0.00 | 39 | 1005.3 |
| 20260504015421 | 15 | 281 | 0.0 | 0.0 | 0.00 | 0.00 | 0.00 | 38 | 1005.5 |
| 20260504014917 | 16 | 281 | 0.0 | 0.0 | 0.00 | 0.00 | 0.00 | 37 | 1005.2 |
| 20260504014413 | 16 | 281 | 0.0 | 0.0 | 0.00 | 0.00 | 0.00 | 36 | 1005.2 |
| 20260504013910 | 16 | 281 | 0.0 | 0.0 | 0.00 | 0.00 | 0.00 | 35 | 1005.3 |
| 20260504013409 | 16 | 281 | 0.0 | 0.0 | 0.00 | 0.00 | 0.00 | 34 | 1005.3 |
| 20260504012905 | 16 | 281 | 0.0 | 0.0 | 0.00 | 0.00 | 0.00 | 34 | 1005.3 |
| 20260504012403 | 16 | 281 | 0.0 | 0.0 | 0.00 | 0.00 | 0.00 | 33 | 1005.4 |
| 20260504011900 | 17 | 281 | 0.0 | 0.0 | 0.00 | 0.00 | 0.00 | 32 | 1005.2 |
| 20260504011357 | 17 | 281 | 0.0 | 0.0 | 0.00 | 0.00 | 0.00 | 31 | 1005.3 |
| 20260504010852 | 18 | 281 | 0.0 | 0.0 | 0.00 | 0.00 | 0.00 | 31 | 1005.3 |
| 20260504010348 | 19 | 281 | 0.0 | 0.0 | 0.00 | 0.00 | 0.00 | 30 | 1005.5 |
| 20260504005845 | 20 | 281 | 0.0 | 1.6 | 0.00 | 0.00 | 0.00 | 28 | 1005.5 |
| 20260504005342 | 20 | 273 | 1.6 | 3.2 | 0.00 | 0.00 | 0.00 | 27 | 1005.4 |
| 20260504004839 | 20 | 283 | 4.8 | 4.8 | 0.00 | 0.00 | 0.00 | 26 | 1005.3 |
| 20260504004337 | 20 | 270 | 1.6 | 4.8 | 0.00 | 0.00 | 0.00 | 27 | 1005.4 |
| 20260504003833 | 20 | 301 | 1.6 | 3.2 | 0.00 | 0.00 | 0.00 | 26 | 1005.6 |
| 20260504003330 | 21 | 286 | 1.6 | 3.2 | 0.00 | 0.00 | 0.00 | 25 | 1005.7 |
| 20260504002827 | 21 | 267 | 1.6 | 4.8 | 0.00 | 0.00 | 0.00 | 26 | 1005.5 |
| 20260504002323 | 21 | 258 | 3.2 | 4.8 | 0.00 | 0.00 | 0.00 | 24 | 1005.8 |
| 20260504001821 | 21 | 268 | 3.2 | 8.0 | 0.00 | 0.00 | 0.00 | 25 | 1006.0 |
| 20260504001318 | 21 | 281 | 1.6 | 4.8 | 0.00 | 0.00 | 0.00 | 26 | 1006.0 |
| 20260504000815 | 21 | 263 | 4.8 | 11.3 | 0.00 | 0.00 | 0.00 | 25 | 1006.0 |
| 20260504000312 | 21 | 248 | 1.6 | 11.3 | 0.00 | 0.00 | 0.00 | 26 | 1005.9 |
| 20260503235810 | 21 | 272 | 3.2 | 8.0 | 0.00 | 0.00 | 0.00 | 26 | 1006.0 |
| 20260503235307 | 21 | 287 | 4.8 | 11.3 | 0.00 | 0.00 | 0.00 | 25 | 1006.0 |
| 20260503234805 | 21 | 280 | 4.8 | 9.7 | 0.00 | 0.00 | 0.00 | 26 | 1006.0 |
| 20260503234303 | 22 | 320 | 4.8 | 8.0 | 0.00 | 0.00 | 0.00 | 25 | 1006.1 |
| 20260503233800 | 22 | 260 | 4.8 | 12.9 | 0.00 | 0.00 | 0.00 | 26 | 1006.1 |
| 20260503233255 | 22 | 249 | 6.4 | 9.7 | 0.00 | 0.00 | 0.00 | 25 | 1006.0 |
| 20260503232753 | 22 | 285 | 4.8 | 4.8 | 0.00 | 0.00 | 0.00 | 25 | 1006.1 |
| 20260503232250 | 22 | 255 | 4.8 | 11.3 | 0.00 | 0.00 | 0.00 | 25 | 1005.9 |
| 20260503231748 | 22 | 269 | 11.3 | 12.9 | 0.00 | 0.00 | 0.00 | 25 | 1006.1 |
| 20260503231245 | 22 | 264 | 8.0 | 11.3 | 0.00 | 0.00 | 0.00 | 24 | 1006.4 |
| 20260503230740 | 22 | 283 | 8.0 | 14.5 | 0.00 | 0.00 | 0.00 | 25 | 1006.3 |
| 20260503230238 | 22 | 294 | 3.2 | 11.3 | 0.00 | 0.00 | 0.00 | 26 | 1006.1 |
| 20260503225736 | 22 | 267 | 6.4 | 11.3 | 0.00 | 0.00 | 0.00 | 25 | 1006.4 |
| 20260503225235 | 22 | 259 | 4.8 | 12.9 | 0.00 | 0.00 | 0.00 | 26 | 1006.4 |
| 20260503224732 | 22 | 272 | 4.8 | 8.0 | 0.00 | 0.00 | 0.00 | 26 | 1006.3 |
| 20260503224230 | 22 | 267 | 9.7 | 17.7 | 0.00 | 0.00 | 0.00 | 25 | 1006.3 |
| 20260503223727 | 22 | 283 | 11.3 | 14.5 | 0.00 | 0.00 | 0.00 | 25 | 1006.5 |
| 20260503223225 | 22 | 338 | 8.0 | 12.9 | 0.00 | 0.00 | 0.00 | 26 | 1006.1 |
| 20260503222721 | 22 | 314 | 4.8 | 20.9 | 0.00 | 0.00 | 0.00 | 27 | 1006.0 |
| 20260503222219 | 22 | 259 | 4.8 | 11.3 | 0.00 | 0.00 | 0.00 | 27 | 1006.3 |
| 20260503221717 | 22 | 201 | 8.0 | 14.5 | 0.00 | 0.00 | 0.00 | 27 | 1006.0 |
| 20260503221215 | 22 | 285 | 8.0 | 14.5 | 0.00 | 0.00 | 0.00 | 26 | 1006.3 |
| 20260503220711 | 22 | 254 | 6.4 | 11.3 | 0.00 | 0.00 | 0.00 | 28 | 1006.4 |
| 20260503220208 | 23 | 303 | 8.0 | 11.3 | 0.00 | 0.00 | 0.00 | 26 | 1006.4 |
| 20260503215705 | 22 | 245 | 8.0 | 11.3 | 0.00 | 0.00 | 0.00 | 26 | 1006.1 |
| 20260503215201 | 23 | 254 | 6.4 | 11.3 | 0.00 | 0.00 | 0.00 | 27 | 1006.4 |
| 20260503214700 | 22 | 240 | 6.4 | 9.7 | 0.00 | 0.00 | 0.00 | 26 | 1006.1 |
| 20260503214155 | 22 | 273 | 6.4 | 14.5 | 0.00 | 0.00 | 0.00 | 27 | 1006.5 |
| 20260503213655 | 23 | 276 | 1.6 | 11.3 | 0.00 | 0.00 | 0.00 | 27 | 1006.5 |
| 20260503213151 | 23 | 295 | 4.8 | 12.9 | 0.00 | 0.00 | 0.00 | 29 | 1006.4 |
| 20260503212649 | 22 | 254 | 8.0 | 9.7 | 0.00 | 0.00 | 0.00 | 27 | 1006.3 |
| 20260503212146 | 22 | 242 | 8.0 | 12.9 | 0.00 | 0.00 | 0.00 | 26 | 1006.5 |
| 20260503211644 | 23 | 226 | 8.0 | 11.3 | 0.00 | 0.00 | 0.00 | 26 | 1006.7 |
| 20260503211139 | 22 | 278 | 4.8 | 9.7 | 0.00 | 0.00 | 0.00 | 27 | 1006.8 |
| 20260503210635 | 22 | 282 | 6.4 | 11.3 | 0.00 | 0.00 | 0.00 | 26 | 1006.7 |
| 20260503210132 | 22 | 282 | 8.0 | 14.5 | 0.00 | 0.00 | 0.00 | 27 | 1006.7 |
| 20260503205628 | 22 | 253 | 4.8 | 12.9 | 0.00 | 0.00 | 0.00 | 28 | 1006.8 |
| 20260503205124 | 22 | 258 | 8.0 | 9.7 | 0.00 | 0.00 | 0.00 | 28 | 1006.9 |
| 20260503204621 | 22 | 244 | 6.4 | 17.7 | 0.00 | 0.00 | 0.00 | 29 | 1006.9 |
| 20260503204119 | 22 | 263 | 9.7 | 20.9 | 0.00 | 0.00 | 0.00 | 28 | 1007.0 |
| 20260503203616 | 22 | 253 | 9.7 | 14.5 | 0.00 | 0.00 | 0.00 | 28 | 1006.8 |
| 20260503203113 | 22 | 52 | 8.0 | 17.7 | 0.00 | 0.00 | 0.00 | 28 | 1007.0 |
| 20260503202610 | 22 | 278 | 3.2 | 4.8 | 0.00 | 0.00 | 0.00 | 29 | 1007.2 |
| 20260503202109 | 22 | 249 | 8.0 | 17.7 | 0.00 | 0.00 | 0.00 | 27 | 1007.4 |
| 20260503201606 | 22 | 284 | 11.3 | 14.5 | 0.00 | 0.00 | 0.00 | 27 | 1007.2 |
| 20260503201103 | 22 | 265 | 6.4 | 12.9 | 0.00 | 0.00 | 0.00 | 30 | 1007.3 |
| 20260503200559 | 22 | 308 | 8.0 | 12.9 | 0.00 | 0.00 | 0.00 | 28 | 1007.4 |
| 20260503200056 | 23 | 275 | 6.4 | 9.7 | 0.00 | 0.00 | 0.00 | 28 | 1007.4 |
| 20260503195553 | 22 | 245 | 8.0 | 20.9 | 0.00 | 0.00 | 0.00 | 30 | 1007.4 |
| 20260503195050 | 22 | 321 | 8.0 | 14.5 | 0.00 | 0.00 | 0.00 | 29 | 1007.4 |
| 20260503194547 | 22 | 260 | 6.4 | 16.1 | 0.00 | 0.00 | 0.00 | 29 | 1007.6 |
| 20260503194047 | 22 | 242 | 9.7 | 12.9 | 0.00 | 0.00 | 0.00 | 29 | 1007.6 |
| 20260503193544 | 22 | 304 | 8.0 | 14.5 | 0.00 | 0.00 | 0.00 | 31 | 1007.3 |
| 20260503193044 | 22 | 250 | 4.8 | 14.5 | 0.00 | 0.00 | 0.00 | 29 | 1007.4 |
| 20260503192541 | 22 | 245 | 6.4 | 11.3 | 0.00 | 0.00 | 0.00 | 31 | 1007.5 |
| 20260503192037 | 22 | 262 | 11.3 | 17.7 | 0.00 | 0.00 | 0.00 | 28 | 1007.6 |
| 20260503191534 | 21 | 275 | 6.4 | 12.9 | 0.00 | 0.00 | 0.00 | 30 | 1007.8 |
| 20260503191031 | 21 | 334 | 9.7 | 12.9 | 0.00 | 0.00 | 0.00 | 28 | 1007.8 |
| 20260503190527 | 22 | 247 | 8.0 | 12.9 | 0.00 | 0.00 | 0.00 | 28 | 1007.9 |
| 20260503190025 | 22 | 294 | 8.0 | 12.9 | 0.00 | 0.00 | 0.00 | 27 | 1007.9 |
| 20260503185521 | 22 | 272 | 8.0 | 27.4 | 0.00 | 0.00 | 0.00 | 27 | 1007.6 |
| 20260503185021 | 21 | 232 | 6.4 | 8.0 | 0.00 | 0.00 | 0.00 | 28 | 1007.7 |
| 20260503184517 | 21 | 256 | 12.9 | 16.1 | 0.00 | 0.00 | 0.00 | 27 | 1008.1 |
| 20260503184014 | 21 | 278 | 9.7 | 14.5 | 0.00 | 0.00 | 0.00 | 28 | 1007.9 |
| 20260503183510 | 21 | 285 | 14.5 | 17.7 | 0.00 | 0.00 | 0.00 | 27 | 1007.9 |
| 20260503183008 | 21 | 251 | 4.8 | 12.9 | 0.00 | 0.00 | 0.00 | 29 | 1008.1 |
| 20260503182507 | 21 | 257 | 6.4 | 17.7 | 0.00 | 0.00 | 0.00 | 29 | 1008.1 |
| 20260503182004 | 21 | 270 | 4.8 | 16.1 | 0.00 | 0.00 | 0.00 | 29 | 1008.1 |
| 20260503181500 | 21 | 55 | 6.4 | 14.5 | 0.00 | 0.00 | 0.00 | 28 | 1008.0 |
| 20260503180956 | 21 | 270 | 4.8 | 9.7 | 0.00 | 0.00 | 0.00 | 28 | 1008.3 |
| 20260503180454 | 21 | 299 | 11.3 | 14.5 | 0.00 | 0.00 | 0.00 | 27 | 1008.4 |
| 20260503175951 | 21 | 222 | 8.0 | 20.9 | 0.00 | 0.00 | 0.00 | 29 | 1008.3 |
| 20260503175449 | 21 | 317 | 4.8 | 14.5 | 0.00 | 0.00 | 0.00 | 30 | 1008.3 |
| 20260503174945 | 21 | 271 | 6.4 | 20.9 | 0.00 | 0.00 | 0.00 | 28 | 1008.4 |
| 20260503174443 | 21 | 310 | 11.3 | 17.7 | 0.00 | 0.00 | 0.00 | 29 | 1008.5 |
| 20260503173938 | 21 | 276 | 8.0 | 12.9 | 0.00 | 0.00 | 0.00 | 29 | 1008.6 |
| 20260503173434 | 21 | 295 | 4.8 | 14.5 | 0.00 | 0.00 | 0.00 | 32 | 1008.3 |
| 20260503172931 | 20 | 296 | 9.7 | 12.9 | 0.00 | 0.00 | 0.00 | 30 | 1008.5 |
| 20260503172428 | 21 | 315 | 4.8 | 11.3 | 0.00 | 0.00 | 0.00 | 31 | 1008.3 |
| 20260503171925 | 21 | 228 | 4.8 | 11.3 | 0.00 | 0.00 | 0.00 | 32 | 1008.3 |
| 20260503171422 | 21 | 295 | 9.7 | 20.9 | 0.00 | 0.00 | 0.00 | 32 | 1008.5 |
| 20260503170919 | 20 | 258 | 6.4 | 14.5 | 0.00 | 0.00 | 0.00 | 34 | 1008.6 |
| 20260503170415 | 21 | 232 | 8.0 | 16.1 | 0.00 | 0.00 | 0.00 | 32 | 1008.6 |
| 20260503150808 | 18 | 315 | 8.0 | 11.3 | 0.00 | 0.00 | 0.00 | 39 | 1008.2 |
| 20260503150303 | 17 | 251 | 4.8 | 14.5 | 0.00 | 0.00 | 0.00 | 42 | 1008.4 |
| 20260503140228 | 15 | 297 | 4.8 | 11.3 | 0.00 | 0.00 | 0.00 | 49 | 1007.9 |
| 20260503131157 | 12 | 264 | 8.0 | 16.1 | 0.00 | 0.00 | 0.00 | 54 | 1007.4 |
| 20260503130655 | 12 | 279 | 8.0 | 9.7 | 0.00 | 0.00 | 0.00 | 54 | 1007.3 |
| 20260503130152 | 12 | 299 | 12.9 | 17.7 | 0.00 | 0.00 | 0.00 | 55 | 1007.4 |